This is the latest recevied weather packets stored in our database for station/object KC3ULW-13. If no packets are shown the sender has not sent any weather packets the latest 10 day(s).
| Time | Temp. | Humidity | Pressure | Rain* | Wind** | Luminosity | Snow |
|---|---|---|---|---|---|---|---|
| 1777556735 | 7.78° C | 89% | 1014 hPa | 0 mm | - | 117 W/m² | - |
| 1777556432 | 7.78° C | 88% | 1014 hPa | 0 mm | - | 70 W/m² | - |
| 1777556132 | 8.33° C | 88% | 1013.6 hPa | 0 mm | - | 57 W/m² | - |
| 1777555827 | 8.33° C | 88% | 1013.8 hPa | 0 mm | - | 60 W/m² | - |
| 1777555523 | 8.33° C | 89% | 1013.6 hPa | 0 mm | - | 171 W/m² | - |
| 1777555220 | 8.33° C | 89% | 1013.5 hPa | 0 mm | - | 73 W/m² | - |
| 1777554917 | 8.33° C | 89% | 1013.3 hPa | 0 mm | - | 43 W/m² | - |
| 1777554614 | 8.89° C | 89% | 1013.4 hPa | 0 mm | - | 38 W/m² | - |
| 1777554310 | 8.89° C | 89% | 1013.1 hPa | 0 mm | - | 52 W/m² | - |
| 1777554008 | 8.89° C | 89% | 1013.1 hPa | 0 mm | - | 47 W/m² | - |
| 1777553704 | 8.89° C | 88% | 1013.1 hPa | 0 mm | - | 17 W/m² | - |
| 1777553400 | 9.44° C | 88% | 1013.1 hPa | 0 mm | - | 23 W/m² | - |
| 1777553097 | 9.44° C | 87% | 1013.2 hPa | 0 mm | - | 49 W/m² | - |
| 1777552796 | 9.44° C | 86% | 1013.1 hPa | 0 mm | - | 55 W/m² | - |
| 1777552492 | 9.44° C | 85% | 1013.2 hPa | 0 mm | - | 53 W/m² | - |
| 1777552189 | 9.44° C | 85% | 1013.1 hPa | 0 mm | - | 58 W/m² | - |
| 1777551886 | 9.44° C | 85% | 1012.7 hPa | 0 mm | - | 53 W/m² | - |
| 1777551584 | 9.44° C | 84% | 1012.9 hPa | 0 mm | - | 43 W/m² | - |
| 1777551281 | 10° C | 83% | 1012.8 hPa | 0 mm | - | 66 W/m² | - |
| 1777550977 | 10° C | 83% | 1012.7 hPa | 0 mm | - | 89 W/m² | - |
| 1777550674 | 9.44° C | 84% | 1012.6 hPa | 0 mm | - | 80 W/m² | - |
| 1777550370 | 9.44° C | 84% | 1012.7 hPa | 0 mm | - | 78 W/m² | - |
| 1777550066 | 9.44° C | 84% | 1012.7 hPa | 0 mm | - | 86 W/m² | - |
| 1777549764 | 9.44° C | 85% | 1012.7 hPa | 0 mm | - | 81 W/m² | - |
| 1777549459 | 8.89° C | 85% | 1012.7 hPa | 0 mm | - | 60 W/m² | - |
* Rain latest hour (hover to see other rain measurements)
** Current wind speed in m/s (hover to see current wind gust speed)